BAW189 EGLL-KEWR

Flight info

Callsign BAW189
Flight time N/A
Altitude 34000
Route ULTIB T420 TNT UL28 PENIL M144 BAGSO DCT DOGAL/M084F360 DCT 54N020W 53N030W 5130N04000W 50N050W DCT ELSIR/N0478F360 DCT LOPRO/N0483F380 DCT MIILS DCT CBIRD DCT HANAA FLOSI4
Aircraft B772/H-SDE2E3FGHIJ5LORVWXY/LB1D1

Departure

Time 2026-05-07 16:10
Airport London Heathrow Airport (EGLL)

Arrival

Time N/A
Airport Newark Liberty International Airport (KEWR)
Time Latitude Longitude Altitude Speed Heading
2026-05-07 14:45 51.47115 -0.48231 90 ft 0 kts 90°
2026-05-07 14:47 51.47248 -0.48231 94 ft 0 kts 90°
2026-05-07 15:52 51.47248 -0.48240 94 ft 4 kts 90°
2026-05-07 15:52 51.47248 -0.48284 93 ft 4 kts 90°
2026-05-07 15:53 51.47248 -0.48319 93 ft 4 kts 107°
2026-05-07 15:53 51.47262 -0.48349 89 ft 4 kts 156°
2026-05-07 15:53 51.47287 -0.48358 92 ft 3 kts 179°
2026-05-07 15:53 51.47313 -0.48358 90 ft 4 kts 180°
2026-05-07 15:54 51.47318 -0.48358 90 ft 0 kts 180°
2026-05-07 15:56 51.47316 -0.48358 90 ft 2 kts 180°
2026-05-07 15:56 51.47286 -0.48358 92 ft 4 kts 179°
2026-05-07 15:56 51.47255 -0.48358 93 ft 4 kts 179°
2026-05-07 15:57 51.47224 -0.48357 93 ft 4 kts 179°
2026-05-07 15:57 51.47193 -0.48357 93 ft 5 kts 179°
2026-05-07 15:57 51.47156 -0.48356 94 ft 6 kts 179°
2026-05-07 15:57 51.47109 -0.48356 93 ft 7 kts 180°
2026-05-07 15:58 51.47057 -0.48356 93 ft 7 kts 180°
2026-05-07 15:58 51.47005 -0.48355 93 ft 7 kts 180°
2026-05-07 15:58 51.46953 -0.48355 94 ft 7 kts 180°
2026-05-07 15:58 51.46902 -0.48355 93 ft 7 kts 179°
2026-05-07 15:59 51.46865 -0.48354 92 ft 5 kts 179°
2026-05-07 15:59 51.46839 -0.48354 90 ft 2 kts 180°
2026-05-07 15:59 51.46829 -0.48354 90 ft 0 kts 179°
2026-05-07 16:01 51.46820 -0.48354 90 ft 5 kts 179°
2026-05-07 16:02 51.46777 -0.48354 90 ft 6 kts 183°
2026-05-07 16:02 51.46747 -0.48396 94 ft 6 kts 253°
2026-05-07 16:02 51.46743 -0.48466 90 ft 6 kts 268°
2026-05-07 16:02 51.46741 -0.48537 90 ft 6 kts 269°
2026-05-07 16:03 51.46741 -0.48609 90 ft 6 kts 270°
2026-05-07 16:03 51.46741 -0.48680 90 ft 6 kts 270°
2026-05-07 16:03 51.46737 -0.48717 91 ft 5 kts 249°
2026-05-07 16:03 51.46699 -0.48743 95 ft 4 kts 186°
2026-05-07 16:04 51.46683 -0.48745 93 ft 4 kts 184°
2026-05-07 16:04 51.46677 -0.48746 92 ft 0 kts 184°
2026-05-07 16:05 51.46665 -0.48747 92 ft 5 kts 184°
2026-05-07 16:05 51.46634 -0.48751 92 ft 4 kts 187°
2026-05-07 16:05 51.46607 -0.48764 94 ft 4 kts 197°
2026-05-07 16:06 51.46605 -0.48765 94 ft 0 kts 197°
2026-05-07 16:06 51.46569 -0.48783 94 ft 7 kts 195°
2026-05-07 16:07 51.46521 -0.48780 94 ft 7 kts 160°
2026-05-07 16:07 51.46487 -0.48726 95 ft 7 kts 117°
2026-05-07 16:07 51.46479 -0.48661 93 ft 2 kts 91°
2026-05-07 16:07 51.46479 -0.48648 93 ft 0 kts 90°
2026-05-07 16:09 51.46479 -0.48603 90 ft 15 kts 90°
2026-05-07 16:09 51.46481 -0.48134 92 ft 76 kts 89°
2026-05-07 16:10 51.46484 -0.46921 96 ft 139 kts 89°
2026-05-07 16:10 51.46496 -0.45128 222 ft 175 kts 89°
2026-05-07 16:10 51.46517 -0.43196 892 ft 177 kts 89°
2026-05-07 16:10 51.46736 -0.41181 1331 ft 190 kts 66°
2026-05-07 16:11 51.47480 -0.39366 1726 ft 200 kts 50°
2026-05-07 16:11 51.48393 -0.37647 2229 ft 207 kts 51°
2026-05-07 16:11 51.49351 -0.35821 2570 ft 220 kts 51°
2026-05-07 16:11 51.50375 -0.33850 2811 ft 238 kts 50°
2026-05-07 16:12 51.51477 -0.31728 3076 ft 256 kts 50°
2026-05-07 16:12 51.52501 -0.29385 3530 ft 259 kts 68°
2026-05-07 16:12 51.53053 -0.26605 3914 ft 265 kts 73°
2026-05-07 16:12 51.53622 -0.23767 4543 ft 268 kts 72°
2026-05-07 16:13 51.54227 -0.20941 5205 ft 266 kts 68°
2026-05-07 16:13 51.55272 -0.18499 5623 ft 272 kts 36°
2026-05-07 16:13 51.57007 -0.17424 6051 ft 272 kts
2026-05-07 16:13 51.58833 -0.18021 6023 ft 275 kts 328°
2026-05-07 16:14 51.60263 -0.19990 6025 ft 270 kts 313°
2026-05-07 16:14 51.61669 -0.22032 6032 ft 273 kts 322°
2026-05-07 16:14 51.63180 -0.23859 6020 ft 269 kts 319°
2026-05-07 16:14 51.64624 -0.25807 6031 ft 270 kts 321°
2026-05-07 16:15 51.66145 -0.27606 6033 ft 272 kts 324°
2026-05-07 16:15 51.67706 -0.29282 6397 ft 274 kts 326°
2026-05-07 16:15 51.69341 -0.30962 6975 ft 276 kts 327°
2026-05-07 16:15 51.70959 -0.32578 7527 ft 278 kts 327°
2026-05-07 16:16 51.72627 -0.34214 8044 ft 282 kts 328°
2026-05-07 16:16 51.74325 -0.35861 8587 ft 285 kts 328°
2026-05-07 16:16 51.76039 -0.37512 9116 ft 289 kts 328°
2026-05-07 16:16 51.77775 -0.39180 9630 ft 292 kts 328°
2026-05-07 16:17 51.79534 -0.40871 10123 ft 295 kts 328°
2026-05-07 16:17 51.81335 -0.42610 10366 ft 310 kts 328°
2026-05-07 16:17 51.83232 -0.44459 10484 ft 327 kts 328°
2026-05-07 16:17 51.85232 -0.46416 10627 ft 344 kts 328°
2026-05-07 16:18 51.87333 -0.48472 10772 ft 363 kts 328°
2026-05-07 16:18 51.89512 -0.50604 11106 ft 375 kts 328°
2026-05-07 16:18 51.91775 -0.52820 11611 ft 384 kts 328°
2026-05-07 16:18 51.94074 -0.55075 12271 ft 388 kts 328°
2026-05-07 16:19 51.96393 -0.57343 13016 ft 391 kts 328°
2026-05-07 16:19 51.98742 -0.59632 13699 ft 395 kts 328°
2026-05-07 16:19 52.01106 -0.61938 14284 ft 399 kts 328°
2026-05-07 16:19 52.03492 -0.64268 14916 ft 401 kts 328°
2026-05-07 16:20 52.05891 -0.66616 15537 ft 403 kts 327°
2026-05-07 16:20 52.08298 -0.68976 16149 ft 405 kts 327°
2026-05-07 16:20 52.10726 -0.71359 16729 ft 408 kts 327°
2026-05-07 16:20 52.13131 -0.73723 17278 ft 411 kts 327°
2026-05-07 16:21 52.15585 -0.76147 17844 ft 413 kts 327°
2026-05-07 16:21 52.18047 -0.78589 18383 ft 416 kts 327°
2026-05-07 16:21 52.20527 -0.81051 18848 ft 418 kts 327°
2026-05-07 16:21 52.23024 -0.83530 19315 ft 421 kts 327°
2026-05-07 16:22 52.25535 -0.86027 19758 ft 423 kts 327°
2026-05-07 16:22 52.28059 -0.88531 20213 ft 425 kts 327°
2026-05-07 16:22 52.30595 -0.91045 20597 ft 429 kts 327°
2026-05-07 16:22 52.33161 -0.93592 21004 ft 432 kts 327°
2026-05-07 16:23 52.35735 -0.96150 21448 ft 434 kts 327°
2026-05-07 16:23 52.38320 -0.98723 21890 ft 436 kts 327°
2026-05-07 16:23 52.40925 -1.01321 22322 ft 439 kts 327°
2026-05-07 16:23 52.43542 -1.03935 22718 ft 441 kts 327°
2026-05-07 16:24 52.46137 -1.06530 23114 ft 443 kts 327°
2026-05-07 16:24 52.48778 -1.09175 23513 ft 446 kts 327°
2026-05-07 16:24 52.51427 -1.11848 23846 ft 448 kts 326°
2026-05-07 16:24 52.54096 -1.14560 24108 ft 453 kts 327°
2026-05-07 16:25 52.56783 -1.17292 24372 ft 456 kts 327°
2026-05-07 16:25 52.59493 -1.20038 24697 ft 458 kts 327°
2026-05-07 16:25 52.62206 -1.22784 25030 ft 460 kts 327°
2026-05-07 16:25 52.64943 -1.25557 25341 ft 462 kts 327°
2026-05-07 16:26 52.67693 -1.28349 25626 ft 465 kts 327°
2026-05-07 16:26 52.70456 -1.31160 25900 ft 468 kts 327°
2026-05-07 16:26 52.73231 -1.33984 26211 ft 470 kts 327°
2026-05-07 16:26 52.76025 -1.36828 26532 ft 473 kts 328°
2026-05-07 16:27 52.78804 -1.39659 26703 ft 478 kts 328°
2026-05-07 16:27 52.81643 -1.42558 26950 ft 481 kts 328°
2026-05-07 16:27 52.84494 -1.45472 27256 ft 483 kts 328°
2026-05-07 16:27 52.87357 -1.48405 27563 ft 484 kts 328°
2026-05-07 16:28 52.90226 -1.51349 27836 ft 486 kts 328°
2026-05-07 16:28 52.93110 -1.54312 28106 ft 489 kts 327°
2026-05-07 16:28 52.96004 -1.57292 28348 ft 491 kts 327°
2026-05-07 16:28 52.98914 -1.60293 28595 ft 493 kts 327°
2026-05-07 16:29 53.01836 -1.63310 28793 ft 497 kts 328°
2026-05-07 16:29 53.04783 -1.66357 28939 ft 500 kts 328°
2026-05-07 16:29 53.07743 -1.69426 29169 ft 502 kts 328°
2026-05-07 16:29 53.10711 -1.72515 29412 ft 503 kts 327°
2026-05-07 16:30 53.13680 -1.75611 29631 ft 505 kts 327°
2026-05-07 16:30 53.16660 -1.78722 29821 ft 507 kts 327°
2026-05-07 16:30 53.19642 -1.81891 30020 ft 507 kts 324°
2026-05-07 16:30 53.22367 -1.85631 30206 ft 507 kts 314°
2026-05-07 16:31 53.24683 -1.90061 30428 ft 506 kts 306°
2026-05-07 16:31 53.26603 -1.94980 30574 ft 506 kts 296°
2026-05-07 16:31 53.28135 -2.00261 30781 ft 505 kts 294°
2026-05-07 16:31 53.29633 -2.05568 31049 ft 504 kts 294°
2026-05-07 16:32 53.31132 -2.10769 31413 ft 501 kts 294°
2026-05-07 16:32 53.32669 -2.15984 31713 ft 500 kts 294°
2026-05-07 16:32 53.34221 -2.21205 31930 ft 500 kts 294°
2026-05-07 16:32 53.35717 -2.26455 32139 ft 500 kts 291°
2026-05-07 16:33 53.36915 -2.31901 32353 ft 498 kts 285°
2026-05-07 16:33 53.37946 -2.37432 32602 ft 497 kts 285°
2026-05-07 16:33 53.38961 -2.42967 32864 ft 497 kts 285°
2026-05-07 16:33 53.39984 -2.48512 33101 ft 496 kts 285°
2026-05-07 16:34 53.41016 -2.54040 33332 ft 496 kts 285°
2026-05-07 16:34 53.42052 -2.59542 33601 ft 495 kts 285°
2026-05-07 16:34 53.43091 -2.65040 33921 ft 493 kts 285°
2026-05-07 16:35 53.45167 -2.76061 34025 ft 496 kts 285°
2026-05-07 16:35 53.47221 -2.87040 33987 ft 493 kts 285°
2026-05-07 16:36 53.49250 -2.98002 33991 ft 490 kts 284°
2026-05-07 16:36 53.51243 -3.08936 33989 ft 489 kts 284°
2026-05-07 16:37 53.53220 -3.19831 33992 ft 487 kts 284°
2026-05-07 16:37 53.55189 -3.30736 33995 ft 486 kts 284°
2026-05-07 16:38 53.57131 -3.41550 33993 ft 486 kts 284°
2026-05-07 16:38 53.59089 -3.52447 33991 ft 487 kts 284°
2026-05-07 16:39 53.61031 -3.63386 34000 ft 486 kts 281°
2026-05-07 16:39 53.62052 -3.74573 33991 ft 481 kts 270°
2026-05-07 16:40 53.62435 -3.85824 33987 ft 481 kts 271°
2026-05-07 16:40 53.62902 -3.97074 33983 ft 481 kts 271°
2026-05-07 16:41 53.63351 -4.08333 33981 ft 481 kts 271°
2026-05-07 16:41 53.63775 -4.19584 33998 ft 480 kts 270°
2026-05-07 16:42 53.64188 -4.30747 33983 ft 480 kts 270°
2026-05-07 16:42 53.64589 -4.41962 33982 ft 479 kts 270°
2026-05-07 16:43 53.64977 -4.53169 33980 ft 478 kts 270°
2026-05-07 16:43 53.65357 -4.64358 33984 ft 478 kts 270°
2026-05-07 16:44 53.65727 -4.75534 33977 ft 476 kts 270°
2026-05-07 16:44 53.66085 -4.86569 33967 ft 473 kts 270°
2026-05-07 16:45 53.66450 -4.97593 33969 ft 470 kts 270°
2026-05-07 16:45 53.66808 -5.08555 33962 ft 467 kts 270°
2026-05-07 16:46 53.67147 -5.19479 33968 ft 465 kts 270°
2026-05-07 16:46 53.67458 -5.30362 33966 ft 464 kts 270°
2026-05-07 16:47 53.67762 -5.41222 33963 ft 463 kts 270°
2026-05-07 16:47 53.68110 -5.51999 33963 ft 464 kts 273°
2026-05-07 16:48 53.68892 -5.62804 33963 ft 464 kts 274°
2026-05-07 16:48 53.69700 -5.73629 33959 ft 465 kts 274°
2026-05-07 16:49 53.70488 -5.84472 33944 ft 466 kts 274°
2026-05-07 16:49 53.71256 -5.95351 33946 ft 466 kts 274°
2026-05-07 16:50 53.72011 -6.06236 33938 ft 467 kts 274°
2026-05-07 16:50 53.72757 -6.17152 33937 ft 467 kts 273°
2026-05-07 16:51 53.73490 -6.28006 33945 ft 467 kts 273°
2026-05-07 16:51 53.74217 -6.38914 33933 ft 467 kts 273°
2026-05-07 16:52 53.74816 -6.48027 33920 ft 466 kts 273°
2026-05-07 16:52 53.75635 -6.60650 33923 ft 464 kts 273°
2026-05-07 16:53 53.76211 -6.69658 33914 ft 463 kts 273°
2026-05-07 16:53 53.76893 -6.80470 33929 ft 461 kts 273°
2026-05-07 16:54 53.77562 -6.91246 33905 ft 460 kts 272°
2026-05-07 16:54 53.78219 -7.01987 33913 ft 459 kts 272°
2026-05-07 16:55 53.78868 -7.12738 33919 ft 459 kts 272°
2026-05-07 16:55 53.79502 -7.23412 33904 ft 459 kts 272°
2026-05-07 16:56 53.80131 -7.34173 33929 ft 459 kts 272°
2026-05-07 16:56 53.81058 -7.50337 33911 ft 460 kts 272°
2026-05-07 16:57 53.81665 -7.61135 33906 ft 460 kts 272°
2026-05-07 16:57 53.82257 -7.71837 33908 ft 460 kts 272°
2026-05-07 16:58 53.82846 -7.82664 33908 ft 461 kts 272°
2026-05-07 16:58 53.83424 -7.93470 33909 ft 461 kts 272°
2026-05-07 16:59 53.83993 -8.04288 33906 ft 461 kts 272°
2026-05-07 16:59 53.84552 -8.15107 33902 ft 461 kts 272°
2026-05-07 17:00 53.85101 -8.25941 33908 ft 461 kts 272°
2026-05-07 17:00 53.85636 -8.36678 33906 ft 461 kts 272°
2026-05-07 17:01 53.86165 -8.47501 33915 ft 461 kts 272°
2026-05-07 17:01 53.86685 -8.58322 33914 ft 461 kts 272°
2026-05-07 17:02 53.87195 -8.69150 33909 ft 461 kts 272°
2026-05-07 17:02 53.87695 -8.79976 33908 ft 460 kts 272°
2026-05-07 17:03 53.88185 -8.90800 33914 ft 460 kts 272°
2026-05-07 17:03 53.88666 -9.01623 33909 ft 460 kts 271°
2026-05-07 17:04 53.89136 -9.12447 33941 ft 461 kts 271°
2026-05-07 17:04 53.89365 -9.17803 34101 ft 461 kts 271°
2026-05-07 17:04 53.89595 -9.23215 34358 ft 459 kts 271°
2026-05-07 17:05 53.89821 -9.28613 34605 ft 458 kts 271°
2026-05-07 17:05 53.90043 -9.33990 34797 ft 457 kts 271°
2026-05-07 17:05 53.90264 -9.39385 34959 ft 458 kts 271°
2026-05-07 17:05 53.90482 -9.44771 35132 ft 458 kts 271°
2026-05-07 17:06 53.90699 -9.50167 35332 ft 457 kts 270°
2026-05-07 17:06 53.90912 -9.55537 35561 ft 456 kts 270°
2026-05-07 17:06 53.91122 -9.60907 35716 ft 457 kts 270°
2026-05-07 17:06 53.91330 -9.66301 35819 ft 458 kts 270°
2026-05-07 17:07 53.91737 -9.77043 35929 ft 460 kts 270°
2026-05-07 17:07 53.92140 -9.87874 35926 ft 458 kts 270°
2026-05-07 17:08 53.92532 -9.98655 35930 ft 457 kts 270°
2026-05-07 17:08 53.92912 -10.09419 35923 ft 456 kts 270°
2026-05-07 17:09 53.93282 -10.20177 35942 ft 458 kts 270°
2026-05-07 17:09 53.93645 -10.31040 35938 ft 463 kts 270°
2026-05-07 17:10 53.93999 -10.41926 35937 ft 467 kts 270°
2026-05-07 17:10 53.94349 -10.52970 35925 ft 470 kts 270°
2026-05-07 17:11 53.94692 -10.64086 35933 ft 472 kts 270°
2026-05-07 17:11 53.95025 -10.75223 35933 ft 472 kts 270°
2026-05-07 17:12 53.95347 -10.86345 35930 ft 471 kts 270°
2026-05-07 17:12 53.95658 -10.97433 35931 ft 468 kts 269°
2026-05-07 17:13 53.95956 -11.08451 35929 ft 466 kts 269°
2026-05-07 17:13 53.96243 -11.19426 35928 ft 464 kts 269°
2026-05-07 17:14 53.96517 -11.30294 35934 ft 463 kts 269°
2026-05-07 17:14 53.96783 -11.41212 35943 ft 462 kts 269°
2026-05-07 17:15 53.97038 -11.52122 35936 ft 462 kts 269°
2026-05-07 17:15 53.97283 -11.63017 35935 ft 461 kts 269°
2026-05-07 17:16 53.97518 -11.73922 35941 ft 461 kts 269°
2026-05-07 17:16 53.97744 -11.84814 35936 ft 461 kts 269°
2026-05-07 17:17 53.97958 -11.95619 35939 ft 461 kts 269°
2026-05-07 17:17 53.98164 -12.06503 35940 ft 461 kts 269°
2026-05-07 17:18 53.98359 -12.17374 35943 ft 461 kts 269°
2026-05-07 17:18 53.98545 -12.28257 35945 ft 461 kts 269°
2026-05-07 17:19 53.98721 -12.39145 35945 ft 461 kts 269°
2026-05-07 17:19 53.98887 -12.50024 35945 ft 460 kts 269°
2026-05-07 17:20 53.99044 -12.60906 35947 ft 460 kts 269°
2026-05-07 17:20 53.99190 -12.71789 35949 ft 460 kts 268°
2026-05-07 17:21 53.99326 -12.82585 35951 ft 460 kts 269°
2026-05-07 17:21 53.99452 -12.93448 35947 ft 460 kts 268°
2026-05-07 17:22 53.99569 -13.04309 35953 ft 459 kts 268°
2026-05-07 17:22 53.99677 -13.15169 35953 ft 459 kts 268°
2026-05-07 17:23 53.99774 -13.26019 35956 ft 459 kts 268°
2026-05-07 17:23 53.99861 -13.36875 35958 ft 459 kts 268°
2026-05-07 17:24 53.99939 -13.47734 35977 ft 459 kts 268°
2026-05-07 17:24 54.00007 -13.58589 35961 ft 459 kts 268°
2026-05-07 17:25 54.00065 -13.69392 35959 ft 459 kts 268°
2026-05-07 17:25 54.00113 -13.80253 35966 ft 459 kts 268°
2026-05-07 17:26 54.00151 -13.91113 35975 ft 459 kts 268°
2026-05-07 17:26 54.00180 -14.01980 35970 ft 460 kts 268°
2026-05-07 17:27 54.00200 -14.12842 35971 ft 460 kts 268°
2026-05-07 17:27 54.00209 -14.23717 35970 ft 459 kts 268°
2026-05-07 17:28 54.00208 -14.34583 35978 ft 459 kts 268°
2026-05-07 17:28 54.00198 -14.45448 35985 ft 460 kts 268°
2026-05-07 17:29 54.00178 -14.56313 35970 ft 460 kts 268°
2026-05-07 17:29 54.00148 -14.67180 35981 ft 460 kts 268°
2026-05-07 17:30 54.00109 -14.77985 35986 ft 460 kts 268°
2026-05-07 17:30 54.00060 -14.88853 35991 ft 460 kts 268°
2026-05-07 17:31 54.00003 -14.99725 35992 ft 460 kts 268°
2026-05-07 17:31 54.00109 -15.10618 35999 ft 461 kts 270°
2026-05-07 17:32 54.00372 -15.21531 35999 ft 462 kts 270°
2026-05-07 17:32 54.00578 -15.30596 35987 ft 462 kts 270°
2026-05-07 17:33 54.00822 -15.43350 35993 ft 462 kts 270°
2026-05-07 17:33 54.01005 -15.54292 36004 ft 464 kts 270°
2026-05-07 17:34 54.01177 -15.65273 36005 ft 465 kts 270°
2026-05-07 17:34 54.01339 -15.76269 36003 ft 466 kts 270°
2026-05-07 17:35 54.01493 -15.87249 36009 ft 467 kts 270°
2026-05-07 17:35 54.01637 -15.98311 36008 ft 468 kts 270°
2026-05-07 17:36 54.01771 -16.09383 36010 ft 469 kts 270°
2026-05-07 17:36 54.01895 -16.20458 36011 ft 469 kts 270°
2026-05-07 17:37 54.01992 -16.29756 36011 ft 469 kts 270°
2026-05-07 17:37 54.02114 -16.42639 36011 ft 469 kts 270°
2026-05-07 17:38 54.02207 -16.53718 36018 ft 468 kts 269°
2026-05-07 17:38 54.02291 -16.64788 36019 ft 468 kts 269°
2026-05-07 17:39 54.02352 -16.74001 36021 ft 468 kts 269°
2026-05-07 17:39 54.02417 -16.85059 36022 ft 467 kts 269°
2026-05-07 17:40 54.02471 -16.96111 36026 ft 467 kts 269°
2026-05-07 17:40 54.02516 -17.07143 36027 ft 467 kts 269°
2026-05-07 17:41 54.02550 -17.18189 36026 ft 467 kts 269°
2026-05-07 17:41 54.02574 -17.29221 36041 ft 467 kts 269°
2026-05-07 17:42 54.02588 -17.40301 36036 ft 467 kts 269°
2026-05-07 17:42 54.02592 -17.51302 36036 ft 468 kts 269°
2026-05-07 17:43 54.02585 -17.62383 36039 ft 468 kts 269°
2026-05-07 17:43 54.02568 -17.73462 36038 ft 468 kts 269°
2026-05-07 17:44 54.02542 -17.84540 36050 ft 468 kts 269°
2026-05-07 17:44 54.02505 -17.95626 36049 ft 469 kts 269°
2026-05-07 17:45 54.02458 -18.06717 36049 ft 469 kts 269°
2026-05-07 17:45 54.02401 -18.17805 36049 ft 469 kts 269°
2026-05-07 17:46 54.02334 -18.28828 36051 ft 469 kts 269°
2026-05-07 17:46 54.02256 -18.39914 36052 ft 469 kts 269°
2026-05-07 17:47 54.02168 -18.51013 36059 ft 469 kts 269°
2026-05-07 17:47 54.02070 -18.62108 36061 ft 469 kts 269°
2026-05-07 17:48 54.01962 -18.73209 36063 ft 469 kts 269°
2026-05-07 17:48 54.01843 -18.84321 36058 ft 469 kts 269°
2026-05-07 17:49 54.01714 -18.95425 36067 ft 469 kts 269°
2026-05-07 17:49 54.01576 -19.06456 36072 ft 470 kts 269°
2026-05-07 17:50 54.01426 -19.17577 36070 ft 470 kts 269°
2026-05-07 17:50 54.01267 -19.28703 36071 ft 470 kts 269°
2026-05-07 17:51 54.01097 -19.39815 36075 ft 470 kts 269°
2026-05-07 17:51 54.00916 -19.50964 36076 ft 471 kts 269°
2026-05-07 17:52 54.00726 -19.62089 36082 ft 471 kts 269°
2026-05-07 17:52 54.00526 -19.73163 36082 ft 471 kts 268°
2026-05-07 17:53 54.00314 -19.84306 36087 ft 471 kts 268°
2026-05-07 17:53 54.00095 -19.95439 36084 ft 471 kts 269°
2026-05-07 17:54 53.99680 -20.06570 36095 ft 472 kts 265°
2026-05-07 17:54 53.99023 -20.17673 36098 ft 472 kts 265°
2026-05-07 17:55 53.98345 -20.28767 36098 ft 472 kts 265°
2026-05-07 17:55 53.97673 -20.39869 36088 ft 472 kts 265°
2026-05-07 17:56 53.97005 -20.50901 36101 ft 472 kts 265°
2026-05-07 17:56 53.96321 -20.62061 36101 ft 472 kts 265°
2026-05-07 17:57 53.95748 -20.71290 36104 ft 473 kts 265°
2026-05-07 17:57 53.94934 -20.84192 36109 ft 473 kts 265°
2026-05-07 17:58 53.94221 -20.95292 36111 ft 473 kts 265°
2026-05-07 17:58 53.93498 -21.06408 36115 ft 474 kts 265°
2026-05-07 17:59 53.92764 -21.17524 36115 ft 474 kts 265°
2026-05-07 17:59 53.92019 -21.28644 36118 ft 474 kts 265°
2026-05-07 18:00 53.91262 -21.39770 36120 ft 475 kts 265°
2026-05-07 18:00 53.90495 -21.50898 36110 ft 475 kts 265°
2026-05-07 18:01 53.89718 -21.62022 36122 ft 475 kts 265°
2026-05-07 18:01 53.88935 -21.73089 36124 ft 475 kts 265°
2026-05-07 18:02 53.87732 -21.89803 36127 ft 476 kts 265°
2026-05-07 18:03 53.86916 -22.00953 36129 ft 476 kts 265°
2026-05-07 18:03 53.86092 -22.12069 36131 ft 476 kts 264°
2026-05-07 18:04 53.85261 -22.23127 36136 ft 476 kts 264°
2026-05-07 18:04 53.84415 -22.34257 36136 ft 476 kts 264°
2026-05-07 18:05 53.83559 -22.45376 36133 ft 476 kts 264°
2026-05-07 18:05 53.82692 -22.56488 36127 ft 476 kts 265°
2026-05-07 18:06 53.81816 -22.67595 36145 ft 476 kts 264°
2026-05-07 18:06 53.80936 -22.78619 36149 ft 476 kts 264°
2026-05-07 18:07 53.80039 -22.89714 36149 ft 476 kts 264°
2026-05-07 18:07 53.79133 -23.00799 36145 ft 476 kts 264°
2026-05-07 18:08 53.78213 -23.11912 36138 ft 476 kts 265°
2026-05-07 18:08 53.77287 -23.22978 36145 ft 476 kts 264°
2026-05-07 18:09 53.76348 -23.34072 36150 ft 476 kts 264°
2026-05-07 18:09 53.75398 -23.45168 36152 ft 477 kts 264°
2026-05-07 18:10 53.74436 -23.56283 36150 ft 477 kts 264°
2026-05-07 18:10 53.73471 -23.67301 36158 ft 477 kts 265°
2026-05-07 18:11 53.72491 -23.78377 36164 ft 477 kts 264°
2026-05-07 18:11 53.71498 -23.89479 36164 ft 477 kts 264°
2026-05-07 18:12 53.70497 -24.00546 36169 ft 477 kts 264°
2026-05-07 18:12 53.69483 -24.11641 36143 ft 478 kts 265°
2026-05-07 18:13 53.68460 -24.22711 36168 ft 477 kts 265°
2026-05-07 18:13 53.67429 -24.33756 36173 ft 477 kts 264°
2026-05-07 18:14 53.66387 -24.44810 36174 ft 477 kts 264°
2026-05-07 18:14 53.65340 -24.55802 36175 ft 477 kts 264°
2026-05-07 18:15 53.64276 -24.66857 36162 ft 477 kts 265°
2026-05-07 18:15 53.63204 -24.77890 36172 ft 477 kts 265°
2026-05-07 18:16 53.62122 -24.88912 36182 ft 477 kts 264°
2026-05-07 18:16 53.61028 -24.99950 36180 ft 477 kts 264°
2026-05-07 18:17 53.59924 -25.10980 36185 ft 477 kts 264°
2026-05-07 18:17 53.58809 -25.21998 36179 ft 477 kts 265°
2026-05-07 18:18 53.57694 -25.32931 36183 ft 477 kts 265°
2026-05-07 18:18 53.56560 -25.43937 36193 ft 477 kts 265°
2026-05-07 18:19 53.55417 -25.54935 36196 ft 477 kts 264°
2026-05-07 18:19 53.54458 -25.64078 36194 ft 477 kts 264°
2026-05-07 18:20 53.53097 -25.76926 36191 ft 477 kts 265°
2026-05-07 18:20 53.52123 -25.86045 36196 ft 477 kts 265°
2026-05-07 18:21 53.50941 -25.97019 36200 ft 477 kts 265°
2026-05-07 18:21 53.49749 -26.07991 36202 ft 477 kts 265°
2026-05-07 18:22 53.48547 -26.18945 36168 ft 477 kts 265°
2026-05-07 18:22 53.47342 -26.29826 36196 ft 476 kts 265°
2026-05-07 18:23 53.46123 -26.40757 36207 ft 476 kts 265°
2026-05-07 18:23 53.44894 -26.51671 36214 ft 476 kts 265°
2026-05-07 18:24 53.43656 -26.62574 36218 ft 476 kts 265°
2026-05-07 18:24 53.42406 -26.73484 36180 ft 476 kts 265°
2026-05-07 18:25 53.41149 -26.84360 36206 ft 474 kts 265°
2026-05-07 18:25 53.39884 -26.95210 36210 ft 474 kts 265°
2026-05-07 18:26 53.38620 -27.05977 36206 ft 473 kts 265°
2026-05-07 18:26 53.37338 -27.16799 36209 ft 473 kts 265°
2026-05-07 18:27 53.36048 -27.27603 36232 ft 473 kts 265°
2026-05-07 18:27 53.34748 -27.38405 36236 ft 473 kts 265°
2026-05-07 18:28 53.33436 -27.49212 36233 ft 473 kts 265°
2026-05-07 18:28 53.32115 -27.60008 36223 ft 473 kts 265°
2026-05-07 18:29 53.30785 -27.70789 36219 ft 473 kts 265°
2026-05-07 18:29 53.29444 -27.81558 36221 ft 472 kts 265°
2026-05-07 18:30 53.28102 -27.92287 36227 ft 471 kts 265°
2026-05-07 18:30 53.26759 -28.02925 36236 ft 470 kts 265°
2026-05-07 18:31 53.25400 -28.13605 36241 ft 470 kts 265°
2026-05-07 18:31 53.24033 -28.24268 36193 ft 469 kts 266°
2026-05-07 18:32 53.22659 -28.34885 36243 ft 467 kts 266°
2026-05-07 18:32 53.21281 -28.45480 36249 ft 467 kts 266°
2026-05-07 18:33 53.19894 -28.56059 36246 ft 467 kts 266°
2026-05-07 18:33 53.18497 -28.66642 36248 ft 467 kts 266°
2026-05-07 18:34 53.17091 -28.77206 36229 ft 467 kts 266°
2026-05-07 18:34 53.15677 -28.87758 36246 ft 467 kts 266°
2026-05-07 18:35 53.14252 -28.98316 36262 ft 467 kts 266°
2026-05-07 18:35 53.12824 -29.08817 36262 ft 468 kts 266°
2026-05-07 18:36 53.11378 -29.19379 36267 ft 468 kts 266°
2026-05-07 18:36 53.09917 -29.29962 36258 ft 468 kts 266°
2026-05-07 18:37 53.08452 -29.40511 36269 ft 467 kts 266°
2026-05-07 18:37 53.06980 -29.51035 36267 ft 467 kts 266°
2026-05-07 18:38 53.05499 -29.61550 36270 ft 467 kts 266°
2026-05-07 18:38 53.04011 -29.72048 36270 ft 466 kts 266°
2026-05-07 18:39 53.02525 -29.82445 36271 ft 463 kts 266°
2026-05-07 18:39 53.01033 -29.92842 36272 ft 461 kts 266°
2026-05-07 18:40 52.99631 -30.03173 36275 ft 454 kts 269°
2026-05-07 18:40 52.98552 -30.13463 36277 ft 452 kts 270°
2026-05-07 18:41 52.97492 -30.23729 36293 ft 451 kts 270°
2026-05-07 18:41 52.96418 -30.33948 36276 ft 449 kts 269°
2026-05-07 18:42 52.95333 -30.44109 36283 ft 450 kts 269°
2026-05-07 18:42 52.94231 -30.54319 36290 ft 451 kts 269°
2026-05-07 18:43 52.93114 -30.64568 36292 ft 452 kts 269°
2026-05-07 18:43 52.91987 -30.74830 36290 ft 453 kts 269°
2026-05-07 18:44 52.90848 -30.85106 36290 ft 454 kts 269°
2026-05-07 18:44 52.89697 -30.95405 36294 ft 455 kts 269°
2026-05-07 18:45 52.88533 -31.05739 36296 ft 456 kts 269°
2026-05-07 18:45 52.87360 -31.16066 36303 ft 457 kts 269°
2026-05-07 18:46 52.86173 -31.26424 36302 ft 458 kts 268°
2026-05-07 18:46 52.84985 -31.36704 36299 ft 458 kts 268°
2026-05-07 18:47 52.83778 -31.47087 36291 ft 459 kts 268°
2026-05-07 18:47 52.82562 -31.57451 36306 ft 459 kts 268°
2026-05-07 18:48 52.81335 -31.67823 36304 ft 460 kts 268°
2026-05-07 18:48 52.80097 -31.78204 36306 ft 460 kts 268°
2026-05-07 18:49 52.78852 -31.88562 36301 ft 459 kts 268°
2026-05-07 18:49 52.77599 -31.98903 36302 ft 459 kts 268°
2026-05-07 18:50 52.76346 -32.09177 36305 ft 458 kts 268°
2026-05-07 18:50 52.75077 -32.19497 36308 ft 458 kts 268°
2026-05-07 18:51 52.73801 -32.29796 36315 ft 458 kts 268°
2026-05-07 18:51 52.72516 -32.40089 36314 ft 458 kts 268°
2026-05-07 18:52 52.71220 -32.50396 36320 ft 458 kts 268°
2026-05-07 18:52 52.69918 -32.60675 36310 ft 458 kts 268°
2026-05-07 18:53 52.68613 -32.70892 36312 ft 458 kts 267°
2026-05-07 18:53 52.67293 -32.81159 36322 ft 458 kts 267°
2026-05-07 18:54 52.65963 -32.91416 36309 ft 456 kts 267°
2026-05-07 18:54 52.64630 -33.01633 36314 ft 456 kts 267°
2026-05-07 18:55 52.63290 -33.11827 36316 ft 455 kts 267°
2026-05-07 18:55 52.61947 -33.21979 36319 ft 454 kts 267°
2026-05-07 18:56 52.60597 -33.32109 36320 ft 453 kts 267°
2026-05-07 18:56 52.59240 -33.42218 36311 ft 452 kts 266°
2026-05-07 18:57 52.57878 -33.52298 36321 ft 452 kts 266°
2026-05-07 18:57 52.56507 -33.62378 36321 ft 452 kts 266°
2026-05-07 18:58 52.55129 -33.72440 36323 ft 452 kts 266°
2026-05-07 18:58 52.53739 -33.82517 36320 ft 452 kts 266°
2026-05-07 18:59 52.52341 -33.92579 36318 ft 452 kts 266°
2026-05-07 18:59 52.50934 -34.02639 36323 ft 452 kts 266°
2026-05-07 19:00 52.49529 -34.12623 36322 ft 452 kts 266°
2026-05-07 19:00 52.48102 -34.22691 36324 ft 453 kts 266°
2026-05-07 19:01 52.46668 -34.32750 36329 ft 453 kts 265°
2026-05-07 19:01 52.45222 -34.42814 36319 ft 453 kts 265°
2026-05-07 19:02 52.43770 -34.52864 36327 ft 453 kts 265°
2026-05-07 19:02 52.42317 -34.62851 36316 ft 453 kts 265°
2026-05-07 19:03 52.40847 -34.72892 36315 ft 453 kts 265°
2026-05-07 19:03 52.39368 -34.82923 36322 ft 453 kts 265°
2026-05-07 19:04 52.37882 -34.92942 36320 ft 452 kts 264°
2026-05-07 19:04 52.36390 -35.02945 36324 ft 452 kts 264°
2026-05-07 19:05 52.34898 -35.12877 36321 ft 452 kts 264°
2026-05-07 19:05 52.33388 -35.22870 36321 ft 452 kts 264°
2026-05-07 19:06 52.32126 -35.31169 36320 ft 452 kts 264°
2026-05-07 19:06 52.29837 -35.46122 36316 ft 452 kts 264°
2026-05-07 19:07 52.28300 -35.56089 36328 ft 453 kts 264°
2026-05-07 19:07 52.26748 -35.66087 36323 ft 454 kts 264°
2026-05-07 19:08 52.25186 -35.76088 36327 ft 455 kts 263°
2026-05-07 19:08 52.23615 -35.86086 36301 ft 455 kts 263°
2026-05-07 19:09 52.22043 -35.96027 36318 ft 456 kts 263°
2026-05-07 19:09 52.20450 -36.06040 36325 ft 456 kts 263°
2026-05-07 19:10 52.18846 -36.16067 36328 ft 457 kts 263°
2026-05-07 19:10 52.17235 -36.26068 36324 ft 456 kts 263°
2026-05-07 19:11 52.15618 -36.36055 36322 ft 455 kts 262°
2026-05-07 19:11 52.14005 -36.45954 36321 ft 455 kts 262°
2026-05-07 19:12 52.12374 -36.55904 36323 ft 455 kts 262°
2026-05-07 19:12 52.10736 -36.65848 36318 ft 455 kts 262°
2026-05-07 19:13 52.09087 -36.75795 36325 ft 455 kts 262°
2026-05-07 19:13 52.07431 -36.85727 36304 ft 455 kts 262°
2026-05-07 19:14 52.05766 -36.95652 36320 ft 455 kts 262°
2026-05-07 19:14 52.04102 -37.05520 36324 ft 456 kts 262°
2026-05-07 19:15 52.02416 -37.15456 36323 ft 456 kts 261°
2026-05-07 19:15 52.00723 -37.25383 36324 ft 457 kts 261°
2026-05-07 19:16 51.99019 -37.35313 36321 ft 457 kts 261°
2026-05-07 19:16 51.97304 -37.45247 36321 ft 457 kts 261°
2026-05-07 19:17 51.95583 -37.55164 36321 ft 457 kts 261°
2026-05-07 19:17 51.93852 -37.65083 36318 ft 457 kts 261°
2026-05-07 19:18 51.92114 -37.74985 36317 ft 456 kts 261°
2026-05-07 19:18 51.90382 -37.84799 36314 ft 455 kts 260°
2026-05-07 19:19 51.88636 -37.94639 36317 ft 454 kts 260°
2026-05-07 19:19 51.86883 -38.04467 36315 ft 454 kts 260°
2026-05-07 19:20 51.85124 -38.14280 36316 ft 454 kts 260°
2026-05-07 19:20 51.83357 -38.24077 36314 ft 454 kts 260°
2026-05-07 19:21 51.81583 -38.33865 36308 ft 454 kts 259°
2026-05-07 19:21 51.79807 -38.43607 36312 ft 455 kts 259°
2026-05-07 19:22 51.78012 -38.53406 36314 ft 456 kts 259°
2026-05-07 19:22 51.76201 -38.63235 36311 ft 456 kts 259°
2026-05-07 19:23 51.74382 -38.73059 36275 ft 457 kts 259°
2026-05-07 19:23 51.72550 -38.82896 36299 ft 458 kts 259°
2026-05-07 19:24 51.70719 -38.92678 36309 ft 459 kts 259°
2026-05-07 19:24 51.68865 -39.02532 36305 ft 460 kts 259°
2026-05-07 19:25 51.66999 -39.12397 36298 ft 460 kts 259°
2026-05-07 19:25 51.65125 -39.22253 36273 ft 460 kts 258°
2026-05-07 19:26 51.63242 -39.32102 36301 ft 460 kts 258°
2026-05-07 19:26 51.61348 -39.41960 36296 ft 461 kts 258°
2026-05-07 19:27 51.59447 -39.51803 36296 ft 461 kts 258°
2026-05-07 19:27 51.57536 -39.61644 36294 ft 461 kts 258°
2026-05-07 19:28 51.55629 -39.71424 36279 ft 461 kts 257°
2026-05-07 19:28 51.53700 -39.81259 36290 ft 461 kts 257°
2026-05-07 19:29 51.51763 -39.91098 36293 ft 462 kts 257°
2026-05-07 19:29 51.49900 -40.00964 36294 ft 460 kts 261°
2026-05-07 19:30 51.48797 -40.11034 36296 ft 457 kts 265°
2026-05-07 19:30 51.47775 -40.21119 36278 ft 458 kts 264°
2026-05-07 19:31 51.46729 -40.31149 36278 ft 459 kts 264°
2026-05-07 19:31 51.45654 -40.41264 36288 ft 461 kts 264°
2026-05-07 19:32 51.44564 -40.51388 36279 ft 462 kts 264°
2026-05-07 19:32 51.43462 -40.61539 36274 ft 462 kts 264°
2026-05-07 19:33 51.42351 -40.71701 36255 ft 463 kts 263°
2026-05-07 19:33 51.41231 -40.81852 36274 ft 463 kts 263°
2026-05-07 19:34 51.40100 -40.92026 36272 ft 464 kts 263°
2026-05-07 19:34 51.38959 -41.02201 36285 ft 464 kts 263°
2026-05-07 19:35 51.37809 -41.12372 36276 ft 465 kts 263°
2026-05-07 19:35 51.36655 -41.22493 36269 ft 465 kts 263°
2026-05-07 19:36 51.35486 -41.32673 36278 ft 465 kts 263°
2026-05-07 19:36 51.34308 -41.42843 36272 ft 465 kts 262°
2026-05-07 19:37 51.33121 -41.53011 36270 ft 464 kts 262°
2026-05-07 19:37 51.31928 -41.63149 36271 ft 463 kts 262°
2026-05-07 19:38 51.30734 -41.73213 36271 ft 463 kts 262°
2026-05-07 19:38 51.29528 -41.83307 36263 ft 462 kts 262°
2026-05-07 19:39 51.28313 -41.93396 36268 ft 462 kts 262°
2026-05-07 19:39 51.27090 -42.03475 36266 ft 462 kts 262°
2026-05-07 19:40 51.25857 -42.13556 36267 ft 462 kts 261°
2026-05-07 19:40 51.24615 -42.23643 36267 ft 463 kts 261°
2026-05-07 19:41 51.23371 -42.33663 36267 ft 463 kts 261°
2026-05-07 19:41 51.22110 -42.43744 36273 ft 463 kts 261°
2026-05-07 19:42 51.20844 -42.53795 36264 ft 462 kts 261°
2026-05-07 19:42 51.19567 -42.63856 36262 ft 462 kts 261°
2026-05-07 19:43 51.18286 -42.73880 36263 ft 461 kts 261°
2026-05-07 19:43 51.16997 -42.83895 36251 ft 461 kts 260°
2026-05-07 19:44 51.15699 -42.93897 36262 ft 461 kts 260°
2026-05-07 19:44 51.14403 -43.03826 36258 ft 461 kts 260°
2026-05-07 19:45 51.13088 -43.13823 36259 ft 461 kts 260°
2026-05-07 19:45 51.11763 -43.23825 36259 ft 462 kts 260°
2026-05-07 19:46 51.10429 -43.33828 36245 ft 462 kts 259°
2026-05-07 19:46 51.09085 -43.43836 36256 ft 462 kts 259°
2026-05-07 19:47 51.07733 -43.53829 36252 ft 462 kts 259°
2026-05-07 19:47 51.06373 -43.63814 36253 ft 462 kts 259°
2026-05-07 19:48 51.05015 -43.73720 36253 ft 461 kts 259°
2026-05-07 19:48 51.03638 -43.83696 36246 ft 461 kts 259°
2026-05-07 19:49 51.02255 -43.93650 36255 ft 461 kts 259°
2026-05-07 19:49 51.00864 -44.03591 36251 ft 461 kts 259°
2026-05-07 19:50 50.99465 -44.13526 36246 ft 461 kts 258°
2026-05-07 19:50 50.98067 -44.23388 36249 ft 461 kts 258°
2026-05-07 19:51 50.96651 -44.33312 36253 ft 461 kts 258°
2026-05-07 19:51 50.95229 -44.43211 36250 ft 460 kts 258°
2026-05-07 19:52 50.93799 -44.53102 36248 ft 460 kts 258°
2026-05-07 19:52 50.92363 -44.62975 36249 ft 459 kts 258°
2026-05-07 19:53 50.90919 -44.72830 36247 ft 459 kts 258°
2026-05-07 19:53 50.89479 -44.82604 36248 ft 458 kts 258°
2026-05-07 19:54 50.88019 -44.92452 36238 ft 458 kts 257°
2026-05-07 19:54 50.86555 -45.02262 36246 ft 458 kts 257°
2026-05-07 19:55 50.85328 -45.10436 36245 ft 459 kts 257°
2026-05-07 19:55 50.83847 -45.20248 36245 ft 459 kts 257°
2026-05-07 19:56 50.82354 -45.30081 36254 ft 459 kts 257°
2026-05-07 19:56 50.80856 -45.39890 36234 ft 458 kts 257°
2026-05-07 19:57 50.79351 -45.49676 36242 ft 457 kts 256°
2026-05-07 19:57 50.77852 -45.59363 36244 ft 456 kts 256°
2026-05-07 19:58 50.76340 -45.69081 36237 ft 455 kts 256°
2026-05-07 19:58 50.74819 -45.78796 36239 ft 455 kts 256°
2026-05-07 19:59 50.73292 -45.88499 36237 ft 455 kts 256°
2026-05-07 19:59 50.71758 -45.98184 36240 ft 454 kts 256°
2026-05-07 20:00 50.70218 -46.07847 36239 ft 454 kts 256°
2026-05-07 20:00 50.68667 -46.17519 36240 ft 454 kts 256°
2026-05-07 20:01 50.67122 -46.27110 36249 ft 454 kts 255°
2026-05-07 20:01 50.65559 -46.36749 36232 ft 453 kts 255°
2026-05-07 20:02 50.63991 -46.46369 36230 ft 452 kts 255°
2026-05-07 20:02 50.62415 -46.55974 36233 ft 451 kts 255°
2026-05-07 20:03 50.60839 -46.65533 36233 ft 451 kts 255°
2026-05-07 20:03 50.59257 -46.75069 36230 ft 450 kts 255°
2026-05-07 20:04 50.57667 -46.84607 36223 ft 450 kts 254°
2026-05-07 20:04 50.56071 -46.94120 36221 ft 449 kts 254°
2026-05-07 20:05 50.54470 -47.03616 36224 ft 449 kts 254°
2026-05-07 20:05 50.52871 -47.13049 36223 ft 450 kts 254°
2026-05-07 20:06 50.51252 -47.22548 36229 ft 450 kts 253°
2026-05-07 20:06 50.49625 -47.32039 36221 ft 449 kts 253°
2026-05-07 20:07 50.47993 -47.41506 36226 ft 449 kts 253°
2026-05-07 20:07 50.46354 -47.50963 36223 ft 448 kts 253°
2026-05-07 20:08 50.44712 -47.60390 36212 ft 448 kts 253°
2026-05-07 20:08 50.43062 -47.69813 36212 ft 448 kts 253°
2026-05-07 20:09 50.41402 -47.79237 36212 ft 448 kts 253°
2026-05-07 20:10 50.38904 -47.93337 36207 ft 448 kts 252°
2026-05-07 20:10 50.37226 -48.02738 36207 ft 448 kts 252°
2026-05-07 20:11 50.35543 -48.12123 36226 ft 448 kts 252°
2026-05-07 20:11 50.33853 -48.21500 36208 ft 447 kts 252°
2026-05-07 20:12 50.32170 -48.30789 36192 ft 446 kts 252°
2026-05-07 20:12 50.30462 -48.40174 36192 ft 445 kts 251°
2026-05-07 20:13 50.28768 -48.49427 36193 ft 444 kts 251°
2026-05-07 20:13 50.27058 -48.58721 36193 ft 444 kts 251°
2026-05-07 20:14 50.25344 -48.67987 36183 ft 444 kts 251°
2026-05-07 20:14 50.23625 -48.77237 36182 ft 443 kts 251°
2026-05-07 20:15 50.21898 -48.86488 36178 ft 444 kts 251°
2026-05-07 20:15 50.20165 -48.95719 36184 ft 444 kts 251°
2026-05-07 20:16 50.18419 -49.04977 36184 ft 445 kts 251°
2026-05-07 20:16 50.16665 -49.14229 36178 ft 445 kts 251°
2026-05-07 20:17 50.14903 -49.23481 36176 ft 445 kts 251°
2026-05-07 20:17 50.13135 -49.32721 36178 ft 444 kts 250°
2026-05-07 20:18 50.11371 -49.41890 36169 ft 444 kts 250°
2026-05-07 20:18 50.09589 -49.51111 36155 ft 444 kts 250°
2026-05-07 20:19 50.07797 -49.60338 36148 ft 444 kts 250°
2026-05-07 20:19 50.06000 -49.69549 36158 ft 444 kts 250°
2026-05-07 20:20 50.04198 -49.78740 36144 ft 444 kts 250°
2026-05-07 20:20 50.02387 -49.87941 36153 ft 445 kts 250°
2026-05-07 20:21 50.00569 -49.97130 36153 ft 445 kts 250°
2026-05-07 20:21 49.98555 -50.06220 36149 ft 444 kts 247°
2026-05-07 20:22 49.96378 -50.15197 36128 ft 444 kts 246°
2026-05-07 20:22 49.94196 -50.24162 36128 ft 444 kts 246°
2026-05-07 20:23 49.92027 -50.33093 36135 ft 444 kts 246°
2026-05-07 20:23 49.89841 -50.42082 36126 ft 445 kts 246°
2026-05-07 20:24 49.87652 -50.51056 36122 ft 445 kts 246°
2026-05-07 20:24 49.85458 -50.60016 36112 ft 445 kts 246°
2026-05-07 20:25 49.83253 -50.68978 36134 ft 445 kts 246°
2026-05-07 20:25 49.81043 -50.77927 36111 ft 444 kts 246°
2026-05-07 20:26 49.78825 -50.86870 36116 ft 444 kts 246°
2026-05-07 20:26 49.76606 -50.95784 36114 ft 443 kts 246°
2026-05-07 20:27 49.74399 -51.04611 36100 ft 442 kts 246°
2026-05-07 20:27 49.72179 -51.13462 36096 ft 440 kts 246°
2026-05-07 20:28 49.69959 -51.22270 36099 ft 439 kts 246°
2026-05-07 20:28 49.67739 -51.31047 36088 ft 438 kts 246°
2026-05-07 20:29 49.65513 -51.39813 36090 ft 438 kts 246°
2026-05-07 20:29 49.63284 -51.48559 36087 ft 438 kts 245°
2026-05-07 20:30 49.61048 -51.57295 36085 ft 438 kts 245°
2026-05-07 20:30 49.58821 -51.65964 36078 ft 438 kts 246°
2026-05-07 20:31 49.56570 -51.74698 36071 ft 439 kts 246°
2026-05-07 20:31 49.54309 -51.83436 36066 ft 439 kts 246°
2026-05-07 20:32 49.52035 -51.92191 36083 ft 440 kts 246°
2026-05-07 20:32 49.49979 -52.01085 36065 ft 442 kts 252°
2026-05-07 20:33 49.48810 -52.10380 36055 ft 443 kts 258°
2026-05-07 20:33 49.47798 -52.19734 36048 ft 443 kts 257°
2026-05-07 20:34 49.46762 -52.29074 36051 ft 443 kts 257°
2026-05-07 20:34 49.45712 -52.38392 36035 ft 442 kts 257°
2026-05-07 20:35 49.44655 -52.47694 36035 ft 442 kts 257°
2026-05-07 20:35 49.43589 -52.56994 36036 ft 442 kts 257°
2026-05-07 20:36 49.42518 -52.66281 36025 ft 441 kts 257°
2026-05-07 20:36 49.41448 -52.75497 36020 ft 440 kts 257°
2026-05-07 20:37 49.40367 -52.84728 36007 ft 438 kts 257°
2026-05-07 20:37 49.39459 -52.92438 35998 ft 437 kts 257°
2026-05-07 20:38 49.38379 -53.01548 35998 ft 436 kts 257°
2026-05-07 20:38 49.37286 -53.10695 35990 ft 435 kts 257°
2026-05-07 20:39 49.36188 -53.19822 35985 ft 435 kts 257°
2026-05-07 20:39 49.35083 -53.28945 36010 ft 435 kts 257°
2026-05-07 20:40 49.33974 -53.38047 35981 ft 434 kts 257°
2026-05-07 20:40 49.32856 -53.47142 35965 ft 434 kts 257°
2026-05-07 20:41 49.31734 -53.56221 35962 ft 433 kts 257°
2026-05-07 20:41 49.30604 -53.65297 35967 ft 433 kts 257°
2026-05-07 20:42 49.29468 -53.74360 35954 ft 433 kts 257°
2026-05-07 20:42 49.28328 -53.83402 35963 ft 432 kts 257°
2026-05-07 20:43 49.27181 -53.92431 35961 ft 432 kts 257°
2026-05-07 20:43 49.26036 -54.01400 35967 ft 432 kts 256°
2026-05-07 20:44 49.24873 -54.10436 35955 ft 432 kts 256°
2026-05-07 20:44 49.23705 -54.19449 35955 ft 431 kts 256°
2026-05-07 20:45 49.22534 -54.28437 35938 ft 431 kts 256°
2026-05-07 20:45 49.21355 -54.37425 35956 ft 431 kts 256°
2026-05-07 20:46 49.20166 -54.46425 35976 ft 433 kts 256°
2026-05-07 20:46 49.19567 -54.50938 36108 ft 434 kts 256°
2026-05-07 20:46 49.18965 -54.55465 36306 ft 433 kts 256°
2026-05-07 20:46 49.18362 -54.59975 36517 ft 434 kts 256°
2026-05-07 20:47 49.17757 -54.64496 36765 ft 434 kts 255°
2026-05-07 20:47 49.17158 -54.68959 36987 ft 433 kts 255°
2026-05-07 20:47 49.16553 -54.73456 37169 ft 433 kts 255°
2026-05-07 20:47 49.15942 -54.77972 37349 ft 433 kts 255°
2026-05-07 20:48 49.15332 -54.82472 37505 ft 433 kts 255°
2026-05-07 20:48 49.14717 -54.86992 37621 ft 434 kts 255°
2026-05-07 20:48 49.14101 -54.91509 37749 ft 435 kts 255°
2026-05-07 20:49 49.12859 -55.00561 37934 ft 436 kts 255°
2026-05-07 20:49 49.11602 -55.09677 37912 ft 438 kts 255°
2026-05-07 20:50 49.10345 -55.18740 37921 ft 435 kts 255°
2026-05-07 20:50 49.09090 -55.27734 37924 ft 432 kts 255°
2026-05-07 20:51 49.07830 -55.36691 37910 ft 432 kts 255°
2026-05-07 20:51 49.06566 -55.45631 37908 ft 431 kts 255°
2026-05-07 20:52 49.05299 -55.54549 37919 ft 431 kts 255°
2026-05-07 20:52 49.04022 -55.63476 37900 ft 431 kts 255°
2026-05-07 20:53 49.02736 -55.72412 37896 ft 432 kts 255°
2026-05-07 20:53 49.01447 -55.81320 37898 ft 433 kts 255°
2026-05-07 20:54 49.00134 -55.90337 37892 ft 434 kts 255°
2026-05-07 20:54 48.98821 -55.99311 37918 ft 434 kts 254°
2026-05-07 20:55 48.97508 -56.08231 37884 ft 434 kts 254°
2026-05-07 20:55 48.96181 -56.17184 37860 ft 433 kts 254°
2026-05-07 20:56 48.94853 -56.26102 37856 ft 431 kts 254°
2026-05-07 20:56 48.93539 -56.34871 37861 ft 430 kts 254°
2026-05-07 20:57 48.92204 -56.43732 37845 ft 430 kts 253°
2026-05-07 20:57 48.90865 -56.52571 37847 ft 429 kts 253°
2026-05-07 20:58 48.89520 -56.61402 37844 ft 428 kts 253°
2026-05-07 20:58 48.88171 -56.70204 37841 ft 428 kts 253°
2026-05-07 20:59 48.86822 -56.78958 37828 ft 429 kts 253°
2026-05-07 20:59 48.85456 -56.87783 37825 ft 429 kts 253°
2026-05-07 21:00 48.84083 -56.96603 37824 ft 429 kts 253°
2026-05-07 21:00 48.82699 -57.05439 37820 ft 429 kts 253°
2026-05-07 21:01 48.81314 -57.14239 37826 ft 428 kts 253°
2026-05-07 21:01 48.79923 -57.23031 37810 ft 428 kts 253°
2026-05-07 21:02 48.78525 -57.31818 37817 ft 428 kts 253°
2026-05-07 21:02 48.77125 -57.40571 37821 ft 428 kts 253°
2026-05-07 21:03 48.75713 -57.49353 37812 ft 428 kts 253°
2026-05-07 21:03 48.74306 -57.58056 37806 ft 428 kts 253°
2026-05-07 21:04 48.72883 -57.66826 37823 ft 428 kts 252°
2026-05-07 21:04 48.71480 -57.75602 37812 ft 429 kts 253°
2026-05-07 21:05 48.70146 -57.84400 37809 ft 428 kts 253°
2026-05-07 21:05 48.68816 -57.93182 37849 ft 429 kts 253°
2026-05-07 21:06 48.67467 -58.01997 37819 ft 430 kts 253°
2026-05-07 21:06 48.66105 -58.10809 37796 ft 430 kts 253°
2026-05-07 21:07 48.64740 -58.19587 37781 ft 428 kts 253°
2026-05-07 21:07 48.63380 -58.28283 37779 ft 427 kts 253°
2026-05-07 21:08 48.62007 -58.37013 37772 ft 426 kts 253°
2026-05-07 21:08 48.60633 -58.45701 37747 ft 424 kts 253°
2026-05-07 21:09 48.59255 -58.54378 37746 ft 424 kts 253°
2026-05-07 21:09 48.57872 -58.63033 37748 ft 424 kts 252°
2026-05-07 21:10 48.56480 -58.71694 37728 ft 424 kts 252°
2026-05-07 21:10 48.55095 -58.80275 37721 ft 423 kts 252°
2026-05-07 21:11 48.53698 -58.88890 37714 ft 422 kts 252°
2026-05-07 21:11 48.51593 -59.01777 37703 ft 422 kts 252°
2026-05-07 21:12 48.50181 -59.10370 37700 ft 422 kts 252°
2026-05-07 21:12 48.48769 -59.18912 37712 ft 422 kts 252°
2026-05-07 21:13 48.47343 -59.27500 37693 ft 423 kts 251°
2026-05-07 21:13 48.45911 -59.36091 37685 ft 421 kts 251°
2026-05-07 21:14 48.44480 -59.44631 37675 ft 420 kts 251°
2026-05-07 21:14 48.43044 -59.53153 37675 ft 419 kts 251°
2026-05-07 21:15 48.41606 -59.61642 37679 ft 418 kts 251°
2026-05-07 21:15 48.40161 -59.70128 37676 ft 418 kts 251°
2026-05-07 21:16 48.38711 -59.78609 37683 ft 418 kts 251°
2026-05-07 21:16 48.37252 -59.87094 37679 ft 421 kts 251°
2026-05-07 21:17 48.35787 -59.95574 37670 ft 422 kts 251°
2026-05-07 21:17 48.34306 -60.04108 37677 ft 422 kts 251°
2026-05-07 21:18 48.32818 -60.12645 37679 ft 422 kts 250°
2026-05-07 21:18 48.31321 -60.21195 37673 ft 422 kts 250°
2026-05-07 21:19 48.29818 -60.29730 37676 ft 423 kts 250°
2026-05-07 21:19 48.28319 -60.38206 37670 ft 423 kts 250°
2026-05-07 21:20 48.26801 -60.46742 37696 ft 424 kts 250°
2026-05-07 21:20 48.25274 -60.55295 37671 ft 424 kts 250°
2026-05-07 21:21 48.23739 -60.63849 37661 ft 424 kts 250°
2026-05-07 21:21 48.22198 -60.72396 37661 ft 424 kts 250°
2026-05-07 21:22 48.20650 -60.80943 37672 ft 425 kts 250°
2026-05-07 21:22 48.19096 -60.89482 37657 ft 424 kts 250°
2026-05-07 21:23 48.17550 -60.97939 37653 ft 423 kts 250°
2026-05-07 21:23 48.15993 -61.06421 37716 ft 422 kts 250°
2026-05-07 21:24 48.14679 -61.13538 37664 ft 423 kts 250°
2026-05-07 21:24 48.13118 -61.21969 37646 ft 423 kts 250°
2026-05-07 21:25 48.11540 -61.30446 37654 ft 423 kts 250°
2026-05-07 21:25 48.09955 -61.38926 37651 ft 422 kts 250°
2026-05-07 21:26 48.08368 -61.47378 37655 ft 422 kts 250°
2026-05-07 21:26 48.06769 -61.55853 37658 ft 423 kts 250°
2026-05-07 21:27 48.05176 -61.64262 37653 ft 423 kts 250°
2026-05-07 21:27 48.03563 -61.72736 37657 ft 424 kts 250°
2026-05-07 21:28 48.01939 -61.81225 37659 ft 426 kts 250°
2026-05-07 21:28 48.00305 -61.89736 37657 ft 427 kts 250°
2026-05-07 21:29 47.98661 -61.98257 37658 ft 427 kts 250°
2026-05-07 21:29 47.97010 -62.06780 37660 ft 428 kts 250°
2026-05-07 21:30 47.95350 -62.15312 37661 ft 428 kts 250°
2026-05-07 21:30 47.93683 -62.23840 37661 ft 428 kts 250°
2026-05-07 21:31 47.92019 -62.32311 37670 ft 429 kts 250°
2026-05-07 21:31 47.90336 -62.40842 37664 ft 429 kts 250°
2026-05-07 21:32 47.88648 -62.49363 37661 ft 428 kts 250°
2026-05-07 21:32 47.86959 -62.57857 37662 ft 427 kts 250°
2026-05-07 21:33 47.85264 -62.66337 37659 ft 427 kts 250°
2026-05-07 21:33 47.83566 -62.74799 37659 ft 426 kts 250°
2026-05-07 21:34 47.81863 -62.83248 37662 ft 426 kts 250°
2026-05-07 21:34 47.80153 -62.91692 37677 ft 427 kts 250°
2026-05-07 21:35 47.78428 -63.00173 37666 ft 428 kts 250°
2026-05-07 21:35 47.76696 -63.08659 37660 ft 429 kts 250°
2026-05-07 21:36 47.74966 -63.17096 37660 ft 430 kts 250°
2026-05-07 21:36 47.73216 -63.25593 37660 ft 430 kts 250°
2026-05-07 21:37 47.71456 -63.34106 37660 ft 431 kts 249°
2026-05-07 21:37 47.69692 -63.42603 37662 ft 430 kts 250°
2026-05-07 21:38 47.67923 -63.51083 37655 ft 430 kts 250°
2026-05-07 21:38 47.66152 -63.59541 37656 ft 429 kts 250°
2026-05-07 21:39 47.64376 -63.67986 37659 ft 428 kts 250°
2026-05-07 21:39 47.62600 -63.76398 37659 ft 427 kts 249°
2026-05-07 21:40 47.60819 -63.84796 37661 ft 427 kts 249°
2026-05-07 21:40 47.59032 -63.93187 37649 ft 426 kts 250°
2026-05-07 21:41 47.57248 -64.01533 37665 ft 424 kts 249°
2026-05-07 21:41 47.55469 -64.09817 37665 ft 425 kts 249°
2026-05-07 21:42 47.53673 -64.18150 37666 ft 425 kts 249°
2026-05-07 21:42 47.51869 -64.26487 37667 ft 425 kts 249°
2026-05-07 21:43 47.50078 -64.34729 37644 ft 425 kts 249°
2026-05-07 21:43 47.48262 -64.43055 37659 ft 425 kts 249°
2026-05-07 21:44 47.46442 -64.51365 37657 ft 425 kts 249°
2026-05-07 21:44 47.44618 -64.59661 37654 ft 424 kts 249°
2026-05-07 21:45 47.42791 -64.67933 37663 ft 424 kts 249°
2026-05-07 21:45 47.40954 -64.76221 37653 ft 425 kts 249°
2026-05-07 21:46 47.39109 -64.84510 37652 ft 425 kts 249°
2026-05-07 21:46 47.37260 -64.92786 37631 ft 425 kts 249°
2026-05-07 21:47 47.35408 -65.01050 37646 ft 424 kts 249°
2026-05-07 21:47 47.33552 -65.09290 37646 ft 423 kts 249°
2026-05-07 21:48 47.31695 -65.17508 37648 ft 422 kts 249°
2026-05-07 21:48 47.29832 -65.25715 37686 ft 423 kts 249°
2026-05-07 21:49 47.27966 -65.33906 37664 ft 424 kts 249°
2026-05-07 21:49 47.26069 -65.42203 37648 ft 425 kts 249°
2026-05-07 21:50 47.24191 -65.50387 37655 ft 425 kts 249°
2026-05-07 21:50 47.22292 -65.58629 37658 ft 425 kts 249°
2026-05-07 21:51 47.20391 -65.66849 37655 ft 424 kts 249°
2026-05-07 21:51 47.18484 -65.75064 37659 ft 424 kts 249°
2026-05-07 21:52 47.16573 -65.83262 37691 ft 425 kts 249°
2026-05-07 21:52 47.14653 -65.91468 37657 ft 424 kts 249°
2026-05-07 21:53 47.12735 -65.99637 37655 ft 422 kts 249°
2026-05-07 21:53 47.10818 -66.07771 37655 ft 420 kts 249°
2026-05-07 21:54 47.08909 -66.15842 37664 ft 418 kts 249°
2026-05-07 21:54 47.06998 -66.23891 37659 ft 417 kts 249°
2026-05-07 21:55 47.05087 -66.31910 37659 ft 416 kts 249°
2026-05-07 21:55 47.03175 -66.39907 37644 ft 417 kts 249°
2026-05-07 21:56 47.01243 -66.47949 37743 ft 420 kts 249°
2026-05-07 21:56 47.00268 -66.51999 37865 ft 421 kts 248°
2026-05-07 21:56 46.99294 -66.56036 38025 ft 421 kts 249°
2026-05-07 21:57 46.98316 -66.60089 38210 ft 421 kts 248°
2026-05-07 21:57 46.97338 -66.64131 38363 ft 421 kts 248°
2026-05-07 21:57 46.95388 -66.72170 38547 ft 422 kts 248°
2026-05-07 21:58 46.93415 -66.80271 38741 ft 423 kts 248°
2026-05-07 21:58 46.91435 -66.88373 38956 ft 422 kts 248°
2026-05-07 21:59 46.90451 -66.92396 39198 ft 419 kts 248°
2026-05-07 21:59 46.89468 -66.96403 39460 ft 416 kts 248°
2026-05-07 21:59 46.88482 -67.00357 39617 ft 415 kts 246°
2026-05-07 21:59 46.87291 -67.04196 39660 ft 414 kts 242°
2026-05-07 22:00 46.84368 -67.11386 39696 ft 408 kts 236°
2026-05-07 22:00 46.81187 -67.18136 39694 ft 404 kts 236°
2026-05-07 22:01 46.78013 -67.24869 39697 ft 402 kts 236°
2026-05-07 22:01 46.74855 -67.31574 39697 ft 400 kts 236°
2026-05-07 22:02 46.71706 -67.38258 39675 ft 400 kts 236°
2026-05-07 22:02 46.68549 -67.44946 39692 ft 401 kts 236°
2026-05-07 22:03 46.65376 -67.51654 39698 ft 403 kts 236°
2026-05-07 22:03 46.62186 -67.58380 39697 ft 405 kts 236°
2026-05-07 22:04 46.58972 -67.65141 39698 ft 407 kts 236°
2026-05-07 22:04 46.55744 -67.71915 39702 ft 408 kts 236°
2026-05-07 22:05 46.52500 -67.78705 39699 ft 409 kts 236°
2026-05-07 22:05 46.49265 -67.85461 39702 ft 409 kts 236°
2026-05-07 22:06 46.46009 -67.92242 39717 ft 409 kts 236°
2026-05-07 22:06 46.42760 -67.98994 39741 ft 408 kts 236°
2026-05-07 22:07 46.40053 -68.04607 39721 ft 407 kts 236°
2026-05-07 22:07 46.36282 -68.12407 39724 ft 405 kts 236°
2026-05-07 22:08 46.33591 -68.17961 39726 ft 404 kts 236°
2026-05-07 22:08 46.30361 -68.24611 39747 ft 403 kts 236°
2026-05-07 22:09 46.27139 -68.31230 39737 ft 401 kts 236°
2026-05-07 22:09 46.23924 -68.37819 39746 ft 402 kts 236°
2026-05-07 22:10 46.20702 -68.44408 39743 ft 403 kts 236°
2026-05-07 22:10 46.17458 -68.51025 39731 ft 404 kts 235°
2026-05-07 22:11 46.14207 -68.57640 39719 ft 405 kts 235°
2026-05-07 22:11 46.10946 -68.64262 39725 ft 405 kts 235°
2026-05-07 22:12 46.07679 -68.70878 39734 ft 404 kts 235°
2026-05-07 22:12 46.04416 -68.77471 39737 ft 404 kts 235°
2026-05-07 22:13 46.01175 -68.84005 39725 ft 403 kts 235°
2026-05-07 22:13 45.97912 -68.90568 39744 ft 402 kts 235°
2026-05-07 22:14 45.94660 -68.97093 39751 ft 401 kts 235°
2026-05-07 22:14 45.91407 -69.03607 39758 ft 401 kts 235°
2026-05-07 22:15 45.88146 -69.10119 39754 ft 402 kts 235°
2026-05-07 22:15 45.84879 -69.16632 39744 ft 402 kts 235°
2026-05-07 22:16 45.81606 -69.23139 39745 ft 402 kts 235°
2026-05-07 22:16 45.78342 -69.29613 39746 ft 403 kts 235°
2026-05-07 22:17 45.75056 -69.36117 39742 ft 403 kts 235°
2026-05-07 22:17 45.71756 -69.42632 39743 ft 403 kts 235°
2026-05-07 22:18 45.66812 -69.52366 39741 ft 403 kts 234°
2026-05-07 22:19 45.63520 -69.58829 39751 ft 402 kts 234°
2026-05-07 22:19 45.60223 -69.65287 39745 ft 402 kts 234°
2026-05-07 22:20 45.56932 -69.71719 39750 ft 401 kts 234°
2026-05-07 22:20 45.53635 -69.78147 39743 ft 400 kts 234°
2026-05-07 22:21 45.50371 -69.84499 39752 ft 399 kts 234°
2026-05-07 22:21 45.47086 -69.90874 39761 ft 399 kts 234°
2026-05-07 22:22 45.43798 -69.97241 39762 ft 399 kts 234°
2026-05-07 22:22 45.40500 -70.03616 39752 ft 399 kts 234°
2026-05-07 22:23 45.37199 -70.09980 39763 ft 399 kts 234°
2026-05-07 22:23 45.33900 -70.16328 39769 ft 399 kts 234°
2026-05-07 22:24 45.30583 -70.22695 39770 ft 400 kts 234°
2026-05-07 22:24 45.27270 -70.29040 39773 ft 400 kts 234°
2026-05-07 22:25 45.23949 -70.35387 39777 ft 400 kts 234°
2026-05-07 22:25 45.20641 -70.41695 39782 ft 401 kts 234°
2026-05-07 22:26 45.17301 -70.48049 39774 ft 402 kts 234°
2026-05-07 22:26 45.13960 -70.54392 39770 ft 402 kts 234°
2026-05-07 22:27 45.10613 -70.60732 39781 ft 402 kts 234°
2026-05-07 22:27 45.07263 -70.67063 39781 ft 402 kts 234°
2026-05-07 22:28 45.03901 -70.73403 39781 ft 402 kts 234°
2026-05-07 22:28 45.00533 -70.79742 39782 ft 403 kts 234°
2026-05-07 22:29 44.97185 -70.86027 39784 ft 402 kts 234°
2026-05-07 22:29 44.93550 -70.92047 39775 ft 404 kts 227°
2026-05-07 22:30 44.89260 -70.97201 39784 ft 406 kts 221°
2026-05-07 22:30 44.84754 -71.02019 39789 ft 406 kts 221°
2026-05-07 22:31 44.80271 -71.06806 39787 ft 407 kts 221°
2026-05-07 22:31 44.75755 -71.11638 39787 ft 408 kts 221°
2026-05-07 22:32 44.71222 -71.16485 39779 ft 410 kts 221°
2026-05-07 22:32 44.66678 -71.21335 39789 ft 410 kts 221°
2026-05-07 22:33 44.62122 -71.26191 39802 ft 411 kts 221°
2026-05-07 22:33 44.57559 -71.31044 39790 ft 412 kts 221°
2026-05-07 22:34 44.53020 -71.35860 39804 ft 411 kts 221°
2026-05-07 22:34 44.48457 -71.40694 39789 ft 411 kts 221°
2026-05-07 22:35 44.43887 -71.45526 39769 ft 412 kts 221°
2026-05-07 22:35 44.39310 -71.50357 39790 ft 412 kts 221°
2026-05-07 22:36 44.34731 -71.55176 39794 ft 411 kts 221°
2026-05-07 22:36 44.30184 -71.59953 39795 ft 411 kts 221°
2026-05-07 22:37 44.25614 -71.64746 39800 ft 411 kts 221°
2026-05-07 22:37 44.21052 -71.69521 39811 ft 410 kts 221°
2026-05-07 22:38 44.16480 -71.74297 39804 ft 410 kts 221°
2026-05-07 22:38 44.11903 -71.79068 39804 ft 411 kts 221°
2026-05-07 22:39 44.07335 -71.83821 39793 ft 410 kts 221°
2026-05-07 22:39 44.02766 -71.88559 39811 ft 409 kts 221°
2026-05-07 22:40 43.98231 -71.93261 39792 ft 409 kts 221°
2026-05-07 22:40 43.93669 -71.97984 39781 ft 409 kts 221°
2026-05-07 22:41 43.89092 -72.02709 39797 ft 409 kts 221°
2026-05-07 22:41 43.84524 -72.07415 39798 ft 410 kts 221°
2026-05-07 22:42 43.79943 -72.12125 39805 ft 410 kts 221°
2026-05-07 22:42 43.75388 -72.16799 39818 ft 411 kts 221°
2026-05-07 22:43 43.70787 -72.21512 39803 ft 412 kts 221°
2026-05-07 22:43 43.66165 -72.26238 39800 ft 413 kts 221°
2026-05-07 22:44 43.61530 -72.30966 39796 ft 415 kts 221°
2026-05-07 22:44 43.56896 -72.35683 39805 ft 414 kts 221°
2026-05-07 22:45 43.52126 -72.40182 39810 ft 416 kts 218°
2026-05-07 22:45 43.47310 -72.44487 39820 ft 415 kts 218°
2026-05-07 22:46 43.42475 -72.48827 39820 ft 414 kts 218°
2026-05-07 22:46 43.37661 -72.53183 39814 ft 414 kts 218°
2026-05-07 22:47 43.32529 -72.56909 39814 ft 421 kts 208°
2026-05-07 22:47 43.27037 -72.59778 39788 ft 422 kts 208°
2026-05-07 22:48 43.21560 -72.62677 39821 ft 422 kts 208°
2026-05-07 22:48 43.16127 -72.65565 39823 ft 422 kts 208°
2026-05-07 22:49 43.10661 -72.68468 39821 ft 423 kts 208°
2026-05-07 22:49 43.07907 -72.69931 39571 ft 426 kts 208°
2026-05-07 22:49 43.05143 -72.71394 39343 ft 422 kts 208°
2026-05-07 22:49 43.02422 -72.72827 39118 ft 418 kts 208°
2026-05-07 22:50 42.99689 -72.74271 38911 ft 423 kts 208°
2026-05-07 22:50 42.96921 -72.75738 38716 ft 428 kts 208°
2026-05-07 22:50 42.94136 -72.77211 38496 ft 430 kts 208°
2026-05-07 22:50 42.91348 -72.78678 38182 ft 427 kts 208°
2026-05-07 22:51 42.88576 -72.80132 37923 ft 425 kts 208°
2026-05-07 22:51 42.85865 -72.81554 37653 ft 422 kts 208°
2026-05-07 22:51 42.83132 -72.82988 37404 ft 420 kts 208°
2026-05-07 22:51 42.80406 -72.84417 37150 ft 418 kts 208°
2026-05-07 22:52 42.77695 -72.85839 36892 ft 418 kts 208°
2026-05-07 22:52 42.74976 -72.87265 36651 ft 420 kts 208°
2026-05-07 22:52 42.72223 -72.88712 36374 ft 428 kts 208°
2026-05-07 22:52 42.69412 -72.90189 36143 ft 434 kts 208°
2026-05-07 22:53 42.66585 -72.91669 35892 ft 435 kts 208°
2026-05-07 22:53 42.63794 -72.93122 35658 ft 435 kts 208°
2026-05-07 22:53 42.60976 -72.94584 35400 ft 433 kts 208°
2026-05-07 22:53 42.58162 -72.96044 35195 ft 432 kts 208°
2026-05-07 22:54 42.55356 -72.97502 34890 ft 433 kts 208°
2026-05-07 22:54 42.52531 -72.98974 34399 ft 436 kts 208°
2026-05-07 22:54 42.49695 -73.00450 33947 ft 437 kts 208°
2026-05-07 22:54 42.46853 -73.01925 33432 ft 437 kts 208°
2026-05-07 22:55 42.44009 -73.03398 32910 ft 436 kts 208°
2026-05-07 22:55 42.41177 -73.04862 32377 ft 434 kts 208°
2026-05-07 22:55 42.38350 -73.06323 31868 ft 435 kts 208°
2026-05-07 22:55 42.35522 -73.07786 31331 ft 436 kts 208°
2026-05-07 22:56 42.32691 -73.09247 30838 ft 434 kts 208°
2026-05-07 22:56 42.29917 -73.10674 30356 ft 430 kts 208°
2026-05-07 22:56 42.27137 -73.12103 29871 ft 426 kts 208°
2026-05-07 22:56 42.24383 -73.13518 29312 ft 422 kts 208°
2026-05-07 22:57 42.22534 -73.14468 28943 ft 419 kts 208°
2026-05-07 22:57 42.18937 -73.16317 28228 ft 415 kts 208°
2026-05-07 22:57 42.16245 -73.17700 27662 ft 413 kts 208°
2026-05-07 22:57 42.14463 -73.18614 27320 ft 411 kts 208°
2026-05-07 22:58 42.11797 -73.19982 26797 ft 408 kts 208°
2026-05-07 22:58 42.09148 -73.21338 26296 ft 406 kts 208°
2026-05-07 22:58 42.06519 -73.22684 25786 ft 403 kts 208°
2026-05-07 22:58 42.03903 -73.24021 25294 ft 400 kts 208°
2026-05-07 22:59 42.01314 -73.25344 24828 ft 398 kts 208°
2026-05-07 22:59 41.98684 -73.26691 24327 ft 407 kts 208°
2026-05-07 22:59 41.96066 -73.28029 23870 ft 408 kts 208°
2026-05-07 22:59 41.93412 -73.29382 23407 ft 408 kts 208°
2026-05-07 23:00 41.90764 -73.30731 22890 ft 405 kts 207°
2026-05-07 23:00 41.88129 -73.32074 22358 ft 404 kts 207°
2026-05-07 23:00 41.85502 -73.33407 21830 ft 402 kts 207°
2026-05-07 23:00 41.82893 -73.34728 21309 ft 400 kts 207°
2026-05-07 23:01 41.80297 -73.36042 20785 ft 397 kts 207°
2026-05-07 23:01 41.77730 -73.37341 20241 ft 393 kts 207°
2026-05-07 23:01 41.75177 -73.38630 19783 ft 389 kts 207°
2026-05-07 23:01 41.72666 -73.39899 19341 ft 384 kts 207°